Location: Unspecified
(0.0000°N, 0.0000°E)
Time: 04:55:43
(UTC+00:00)

Altair - All Passes

Search period start: 21 May 2026 00:00
Search period end: 31 May 2026 00:00
Orbit: 1501 x 1682 km, 47.2° (Epoch: 20 May)

Date Brightness Start Highest point End Pass type
(mag) Time Alt. Az. Time Alt. Az. Time Alt. Az.
21 May - 00:06:20 10° SW 00:15:39 77° SE 00:25:15 10° NE visible
21 May - 02:13:42 10° W 02:20:26 22° NW 02:27:23 10° N visible
21 May - 10:52:33 10° NNW 11:01:21 34° NE 11:09:54 10° ESE daylight
21 May - 12:56:25 10° NW 13:06:01 53° SW 13:15:20 10° SSE daylight
21 May - 21:43:02 10° SSE 21:45:25 11° SE 21:47:48 10° ESE night (unlit)
21 May - 23:41:12 10° SSW 23:50:25 69° SE 23:59:55 10° NE visible
22 May - 01:47:55 10° W 01:55:08 25° NW 02:02:33 10° N visible
22 May - 10:27:35 10° N 10:36:03 30° NE 10:44:17 10° ESE daylight
22 May - 12:31:00 10° NW 12:40:47 60° SW 12:50:16 10° SSE daylight
22 May - 23:16:07 10° SSW 23:25:12 61° SE 23:34:34 10° NE night (unlit)
23 May - 01:22:14 10° WSW 01:29:50 28° NW 01:37:41 10° N visible
23 May - 10:02:40 10° N 10:10:44 27° NE 10:18:37 10° ESE daylight
23 May - 12:05:36 10° NW 12:15:32 67° SW 12:25:09 10° SSE daylight
23 May - 14:18:03 10° WSW 14:20:41 11° SW 14:23:18 10° SSW daylight
23 May - 22:51:02 10° SSW 22:59:59 54° SE 23:09:10 10° NE night (unlit)
24 May - 00:56:37 10° WSW 01:04:33 31° NW 01:12:45 10° N visible
24 May - 09:37:47 10° N 09:45:25 24° NE 09:52:52 10° E daylight
24 May - 11:40:14 10° NW 11:50:17 74° SW 12:00:01 10° SSE daylight
24 May - 13:51:03 10° WSW 13:55:19 13° SW 13:59:33 10° SSW daylight
24 May - 22:26:00 10° SSW 22:34:46 48° SE 22:43:44 10° ENE night (unlit)
25 May - 00:31:04 10° WSW 00:39:17 35° NW 00:47:47 10° NNE visible
25 May - 09:13:00 10° N 09:20:04 21° NE 09:27:00 10° E daylight
25 May - 11:14:56 10° NW 11:25:01 82° SW 11:34:50 10° SE daylight
25 May - 13:24:36 10° W 13:29:58 16° SW 13:35:16 10° SSW daylight
25 May - 22:00:59 10° SSW 22:09:33 43° SE 22:18:16 10° ENE night (unlit)
26 May - 00:05:34 10° WSW 00:14:01 40° NW 00:22:47 10° NNE visible
26 May - 08:48:17 10° N 08:54:43 18° NE 09:01:02 10° E daylight
26 May - 10:49:38 10° NW 10:59:46 89° NE 11:09:38 10° SE daylight
26 May - 12:58:24 10° W 13:04:38 18° SW 13:10:47 10° S daylight
26 May - 21:36:00 10° SSW 21:44:19 38° SE 21:52:45 10° ENE night (unlit)
26 May - 23:40:07 10° WSW 23:48:47 45° NW 23:57:44 10° NNE visible
27 May - 08:23:42 10° N 08:29:20 16° NE 08:34:54 10° E daylight
27 May - 10:24:22 10° NW 10:34:31 81° NE 10:44:23 10° SE daylight
27 May - 12:32:23 10° W 12:39:19 21° SW 12:46:09 10° S daylight
27 May - 21:11:04 10° SSW 21:19:05 33° SE 21:27:11 10° ENE night (unlit)
27 May - 23:14:43 10° WSW 23:23:32 50° NW 23:32:39 10° NNE visible
28 May - 07:59:19 10° NNE 08:03:57 14° NE 08:08:32 10° ENE daylight
28 May - 09:59:08 10° NNW 10:09:15 73° NE 10:19:06 10° SE daylight
28 May - 12:06:28 10° W 12:14:00 24° SW 12:21:24 10° S daylight
28 May - 20:46:11 10° S 20:53:50 29° SE 21:01:33 10° ENE visible
28 May - 22:49:21 10° SW 22:58:19 56° NW 23:07:33 10° NNE visible
29 May - 07:35:18 10° NNE 07:38:33 12° NE 07:41:46 10° ENE daylight
29 May - 09:33:57 10° NNW 09:43:59 66° NE 09:53:48 10° SE daylight
29 May - 11:40:39 10° WNW 11:48:41 27° SW 11:56:35 10° S daylight
29 May - 20:21:20 10° S 20:28:35 26° SE 20:35:52 10° E visible
29 May - 22:24:01 10° SW 22:33:05 63° NW 22:42:25 10° NNE night (unlit)
30 May - 00:37:49 10° NW 00:38:25 10° NW 00:39:02 10° NW visible
30 May - 09:08:47 10° NNW 09:18:43 59° NE 09:28:26 10° SE daylight
30 May - 11:14:55 10° WNW 11:23:24 31° SW 11:31:43 10° S daylight
30 May - 19:56:33 10° S 20:03:19 23° SE 20:10:06 10° E visible
30 May - 21:58:45 10° SW 22:07:52 71° NW 22:17:15 10° NNE night (unlit)
